Location: Waco, TX
(31.5480°N, 97.1670°W)
Time: 00:54:04
(UTC-06:00)

ISS - Pass Details

Date: 20 January 2018
Orbit: 402 x 407 km, 51.6° (Epoch: 21 January)

Event Time Altitude Azimuth Distance (km) Brightness Sun altitude
Rises 21:34:59 0° 261° (W) 2,304 - -47.1°
Reaches altitude 10° 21:37:38 10° 284° (WNW) 1,448 - -47.7°
Maximum altitude 21:39:44 16° 325° (NW) 1,144 - -48.1°
Drops below altitude 10° 21:41:51 10° 6° (N) 1,453 - -48.6°
Sets 21:44:31 0° 29° (NNE) 2,315 - -49.1°
